Regional Weather Roundup
Issued by NWS Glasgow, MT

Home | Current Version | Previous Version | Text Only | Print | Product List | Glossary On
Versions: 1 2 3 4 5 6 7 8 9 10 11 12 13 14 15 16 17 18 19 20 21 22 23 24 25 26 27 28 29 30 31 32 33 34 35 36 37 38 39 40 41 42 43 44 45 46 47 48 49 50
000
ASUS45 KGGW 191615
RWRGGW
HOURLY WEATHER ROUNDUP FOR NORTHEAST MONTANA
NATIONAL WEATHER SERVICE GLASGOW MONTANA
900 AM MST FRI DEC 19 2014

NOTE: "FAIR" INDICATES FEW OR NO CLOUDS BELOW 12,000 FEET WITH NO
SIGNIFICANT WEATHER AND/OR OBSTRUCTIONS TO VISISBILITY.

NORTHEAST MONTANA


CITY           SKY/WX    TMP DP  RH WIND       PRES   REMARKS
GLASGOW        PTCLDY    21  18  88 N5        29.91S FOG
WOLF POINT     CLEAR     19  15  84 CALM      29.94R
JORDAN           N/A     25  21  85 CALM      29.91S
SIDNEY         PTCLDY    25  21  86 CALM      29.95S
GLENDIVE       PTCLDY    28  25  86 S7        29.93S

FORT PECK REPORTS


CITY           SKY/WX    TMP DP  RH WIND       PRES   REMARKS

SOUTHEAST MONTANA


CITY           SKY/WX    TMP DP  RH WIND       PRES   REMARKS
BILLINGS       MOCLDY    29  18  63 SW16      29.94R
MILES CITY     PTCLDY    26  21  81 SE6       29.95S
BAKER          MOCLDY    28  23  81 CALM      29.94S
LIVINGSTON     MOCLDY    39  22  50 W28G38    29.92F

CENTRAL MONTANA


CITY           SKY/WX    TMP DP  RH WIND       PRES   REMARKS
HAVRE          PTCLDY    15  11  83 E3        29.88S
LEWISTOWN      PTCLDY    30  20  66 E7        29.89S
GREAT FALLS    MOCLDY    36  26  67 S13       29.85F
CUT BANK       CLOUDY    30  22  72 S3        29.80F
HELENA         MOCLDY    25  22  88 CALM      29.95S
BUTTE          CLOUDY    21  18  88 CALM      29.96S
BOZEMAN        MOCLDY    23  19  85 S7        29.97F

WESTERN MONTANA


CITY           SKY/WX    TMP DP  RH WIND       PRES   REMARKS
MISSOULA       CLOUDY    29  28  96 CALM      29.96S
KALISPELL      NOT AVBL

NORTH DAKOTA


CITY           SKY/WX    TMP DP  RH WIND       PRES   REMARKS
WILLISTON      CLOUDY    21  19  92 CALM      29.94S FOG
DICKINSON      MOSUNNY   31  24  75 W8        29.90S
MINOT          CLOUDY    28  26  92 W3        29.93S FOG
BISMARCK       PTSUNNY   23  21  92 SE3       29.96S

SOUTHERN SASKATCHEWAN


CITY           SKY/WX    TMP DP  RH WIND       PRES   REMARKS
REGINA         FOG       18  16  93 NW8       29.94  VSB 1
MOOSE JAW      LGT SNOW  18  16  93 CALM      29.94  VSB 3/4
ESTEVAN        FOG       23  21  93 W6        29.93R VSB 1/4
SWIFT CURRENT    N/A     19  18  93 S6        29.85S



USA.gov is the U.S. government's official web portal to all federal, state and local government web resources and services.